EW6426 Weather Reports


time (UTC)temp
C
wind
direction
speed
KPH
gust
KPH
rain 1hr
cm
rain 24hr
cm
rain mn
cm
humidity
%
barometer
mb
20260504081545 7 56 0.0 0.0 0.00 0.00 0.00 72 999.3
20260504044551 14 247 0.0 0.0 0.00 0.00 0.00 54 998.1
20260504043055 14 261 0.0 0.0 0.00 0.00 0.00 52 998.4
20260504041546 14 278 0.0 0.0 0.00 0.00 0.00 51 998.7
20260504040043 15 240 0.0 0.0 0.00 0.00 0.00 50 998.8
20260504034542 15 268 0.0 0.0 0.00 0.00 0.00 49 999.1
20260504033040 14 248 0.0 0.0 0.00 0.00 0.00 51 999.2
20260504031538 15 259 0.0 0.0 0.00 0.00 0.00 50 999.4
20260504030036 15 255 0.0 0.0 0.00 0.00 0.00 49 999.6
20260504024535 15 253 0.0 0.0 0.00 0.00 0.00 49 999.8
20260504023035 15 226 0.0 0.0 0.00 0.00 0.00 47 999.8
20260504021532 15 265 0.0 0.0 0.00 0.00 0.00 46 999.8
20260504020032 16 251 0.0 0.0 0.00 0.00 0.00 45 1000.0
20260504014538 17 247 0.0 0.0 0.00 0.00 0.00 41 1000.2
20260504013035 18 259 0.0 0.0 0.00 0.00 0.00 39 1000.5
20260504011525 18 267 0.0 0.0 0.00 0.00 0.00 37 1000.6
20260504010023 19 266 0.0 0.0 0.00 0.00 0.00 35 1001.0
20260504004520 20 251 0.0 0.0 0.00 0.00 0.00 33 1001.3
20260504003017 20 322 0.0 0.0 0.00 0.00 0.00 30 1001.6
20260504001515 21 265 0.0 0.0 0.00 0.00 0.00 31 1002.0
20260504000012 21 261 0.0 0.0 0.00 0.00 0.00 29 1002.3
20260503234511 21 281 0.0 0.0 0.00 0.00 0.00 29 1002.7
20260503233014 21 308 0.0 0.0 0.00 0.00 0.00 28 1003.0
20260503231506 21 240 0.0 0.0 0.00 0.00 0.00 28 1003.2
20260503230006 21 258 0.0 0.0 0.00 0.00 0.00 27 1003.5
20260503224504 21 286 0.0 0.0 0.00 0.00 0.00 27 1003.7
20260503223059 21 310 0.0 0.0 0.00 0.00 0.00 28 1004.0
20260503221603 20 312 0.0 0.0 0.00 0.00 0.00 27 1004.4
20260503220054 20 311 0.0 0.0 0.00 0.00 0.00 27 1004.6
20260503214558 21 297 0.0 0.0 0.00 0.00 0.00 26 1004.9
20260503213049 20 288 0.0 0.0 0.00 0.00 0.00 26 1005.3
20260503211548 20 313 0.0 0.0 0.00 0.00 0.00 26 1005.6
20260503210045 20 300 0.0 0.0 0.00 0.00 0.00 26 1005.9
20260503204543 20 300 0.0 0.0 0.00 0.00 0.00 24 1006.3
20260503203057 20 265 0.0 0.0 0.00 0.00 0.00 25 1006.5
20260503201536 20 263 0.0 0.0 0.00 0.00 0.00 23 1006.9
20260503200032 19 250 0.0 0.0 0.00 0.00 0.00 23 1007.2
20260503194539 19 315 0.0 0.0 0.00 0.00 0.00 23 1007.5
20260503193027 19 250 0.0 0.0 0.00 0.00 0.00 26 1007.8
20260503191524 19 280 0.0 0.0 0.00 0.00 0.00 24 1008.0
20260503190036 18 303 0.0 0.0 0.00 0.00 0.00 28 1008.3
20260503184523 18 304 0.0 0.0 0.00 0.00 0.00 28 1008.5
20260503183017 18 294 0.0 0.0 0.00 0.00 0.00 29 1008.9
20260503181512 18 306 0.0 0.0 0.00 0.00 0.00 30 1009.2
20260503180010 18 309 0.0 0.0 0.00 0.00 0.00 31 1009.3
20260503174508 17 335 0.0 0.0 0.00 0.00 0.00 31 1009.8
20260503173007 17 310 0.0 0.0 0.00 0.00 0.00 32 1010.1
20260503171505 17 319 0.0 0.0 0.00 0.00 0.00 33 1010.3
20260503130125 6 360 0.0 0.0 0.00 0.00 0.00 72 1011.9